Regional Weather Roundup
Issued by NWS

Home | Current Version | Previous Version | Text Only | Print | Product List | Glossary On
Versions: 1 2 3 4 5 6 7 8 9 10 11 12 13 14 15 16 17 18 19 20 21 22 23 24 25 26 27 28 29 30 31 32 33 34 35 36 37 38 39 40 41 42 43 44 45 46 47 48 49 50
000
ASUS42 KTBW 021117
RWRFL
FLORIDA REGIONAL WEATHER ROUNDUP
NATIONAL WEATHER SERVICE TAMPA BAY RUSKIN FL
700 AM EDT SUN AUG 02 2015

NOTE: "FAIR" INDICATES FEW OR NO CLOUDS BELOW 12,000 FEET WITH NO
SIGNIFICANT WEATHER AND/OR OBSTRUCTIONS TO VISIBILITY.


FLZ001>010-012>015-112-114-115-021200-
PANHANDLE FLORIDA

CITY           SKY/WX    TMP DP  RH WIND       PRES   REMARKS
PENSACOLA      CLEAR     75  72  90 N6        29.85S
PENSACOLA NAS  CLEAR     75  71  87 N3        29.85R
MILTON NAS     CLEAR     74  72  93 N6        29.86
CRESTVIEW      CLEAR     74  73  97 CALM      29.87R
DUKE FIELD     FAIR      74  72  94 N3        29.85R
VALPARAISO     PTCLDY    75  73  93 N5        29.85R
MARY ESTHER    CLEAR     75  72  89 NE7       29.84R
TRI COUNTY     FAIR      73  72  96 CALM      29.88R
PANAMA CITY    FAIR      75  72  90 N6        29.84R
TYNDALL AFB    CLEAR     75  72  91 N6        29.84R
APALACHICOLA   CLEAR     78  74  87 NW5       29.82R

STATION/POSITION SKY/WX   TEMP    WIND        PRES    WAVE   SWELL
                          AIR SEA DIR/SP/G            HT/PER HT/PER
                          (F)     (DEG/KT/KT) (MB)    (FT/S) (FT/S)
30.1N   87.6W              83 86  360/  6/  8 1009.8S   1/ 8
29.2N   88.2W              85 86  280/ 12/ 14 1011.1F   2/ 5
28.8N   86.0W              82 86  260/ 14/ 17 1009.8F   4/ 7   2/ 7
PANAMA CITY BEAC           78 86   40/  8/ 11 1010.1R
CAPE SAN BLAS    NOT AVBL
TOWER C                    80     330/  8/  9 1009.4R
28.5N   84.5W              79 84  210/ 17/ 21 1009.5R   5/ 7

$$
FLZ011-016>038-118-127-128-134-139-239-021200-
NORTH FLORIDA

CITY           SKY/WX    TMP DP  RH WIND       PRES   REMARKS
MARIANNA       CLOUDY    74  74 100 NE8       29.85S
TALLAHASSEE    CLOUDY    79  75  87 N7        29.82R
PERRY          DRIZZLE   75  75 100 E6        29.82R
CROSS CITY       N/A     77  75  93 S8        29.84R
LAKE CITY      CLOUDY    72  72 100 SE8       29.87R
GAINESVILLE    CLOUDY    73  71  93 S7        29.88S
MAYPORT NAS    CLOUDY    75  71  87 S7        29.89R
JACKSONVILLE   MOCLDY    75  71  87 S9        29.88R
JAX NAS        MOCLDY    80  71  74 S14       29.89R
JAX CRAIG      CLOUDY    75  71  87 SE6       29.89R
JAX CECIL      MOCLDY    73  72  94 SE6       29.89R
FERNANDINA BEA PTSUNNY   77  72  83 S5        29.88R
ST AUGUSTINE   MOCLDY    74  71  91 S8        29.91R

STATION/POSITION SKY/WX   TEMP    WIND        PRES    WAVE   SWELL
                          AIR SEA DIR/SP/G            HT/PER HT/PER
                          (F)     (DEG/KT/KT) (MB)    (FT/S) (FT/S)
SHELL POINT                76     350/  6/  8   N/A
KEATON BEACH               78     240/ 16/ 17 1009.3R
CEDAR KEY                  81     220/ 14/ 19 1011.2R
FERNANDINA                 76 84  160/  5/  6 1011.1F
30.7N   81.3W                 83                N/A     4/ 6
MAYPORT                    75 84  190/  3/  5 1012.1F
31.4N   80.9W              80 83  200/ 12/ 16 1012.6R   4/ 6   3/ 6
ST AUGUSTINE               74 79  190/ 12/ 14 1013.3R

$$
FLZ040-043>046-052-053-057-058-063-144-021200-
INTERIOR CENTRAL FLORIDA

CITY           SKY/WX    TMP DP  RH WIND       PRES   REMARKS
OCALA          PTCLDY    73  70  88 S6        29.89R
THE VILLAGES     N/A     73  73 100 SE5       29.82R
LEESBURG       PTCLDY    75  71  87 S9        29.92R
SANFORD        PTCLDY    74  71  91 S8        29.92S
ORLANDO EXEC   MOCLDY    74  74 100 S8        29.93R
ORLANDO INTL   MOCLDY    73  73 100 S6        29.94R
WINTER HAVEN   CLOUDY    76  73  91 S5        29.94R
LAKELAND       CLOUDY    73  72  94 S3        29.93R
BARTOW         FAIR      72 N/A N/A CALM      29.94R
OKEECHOBEE       N/A     72  72 100 E3        29.95R

$$
FLZ041-047-054-059-064-141-147-021200-
EAST CENTRAL FLORIDA

CITY           SKY/WX    TMP DP  RH WIND       PRES   REMARKS
ORMOND BEACH   PTCLDY    73  70  88 S6        29.92
DAYTONA BEACH  MOCLDY    73  70  90 S7        29.93R
DELAND           N/A     72  72 100 CALM      29.94R
NEW SMYRNA BEA CLEAR     73  70  88 S8        29.93
JFK SPACE CTR  MOCLDY    74  71  89 S5        29.93R
TITUSVILLE     PTCLDY    72  70  94 S9        29.94
CAPE CANAVERAL MOCLDY    74  73  95 S3        29.93R
PATRICK AFB    MOCLDY    77  72  85 S7        29.94R
MELBOURNE      MOCLDY    76  73  91 S5        29.94R
VERO BEACH     CLOUDY    76  72  87 CALM      29.96R
FT PIERCE      CLOUDY    77  74  90 CALM      29.95R
STUART         CLOUDY    72  68  88 CALM      29.98R

STATION/POSITION SKY/WX   TEMP    WIND        PRES    WAVE   SWELL
                          AIR SEA DIR/SP/G            HT/PER HT/PER
                          (F)     (DEG/KT/KT) (MB)    (FT/S) (FT/S)
28.5N   80.2W              80 84  200/ 14/ 16 1013.9R
28.9N   78.5W              83 83  170/ 14/ 16 1014.5F
TRIDENT PIER               76 78  200/  6/  8 1014.1R
28.4N   80.5W                 77                N/A     2/ 4
27.5N   80.2W                 77                N/A     2/ 4

$$
FLZ050-056-061-142-242-148-248-149-249-151-251-155-255-
160-260-021200-
WEST CENTRAL FLORIDA

CITY           SKY/WX    TMP DP  RH WIND       PRES   REMARKS
CRYSTAL RIVER  CLOUDY    73  72  94 S3        29.88R
INVERNESS      PTSUNNY   72  72 100 CALM      29.91R
BROOKSVILLE    CLOUDY    73  71  93 S8        29.91R
ZEPHYRHILLS    FAIR      70  70 100 CALM      29.93R
CLEARWATER     CLOUDY    77  74  90 S5        29.90R
TAMPA INTL     CLOUDY    77  72  84 SE6       29.92R
TAMPA EXEC     CLOUDY    77  72  83 S6        29.92R
PLANT CITY     CLOUDY    75  73  94 S3        29.94R
MACDILL AFB    CLOUDY    77  77 100 SE7       29.91R
PETER O KNIGHT CLOUDY    79  75  89 S7        29.92R
ST PETERSBURG  CLOUDY    80  75  84 SW5       29.89R
SARASOTA       CLOUDY    76  75  97 SE6       29.90R
VENICE         FAIR      75  73  94 E3        29.92S

STATION/POSITION SKY/WX   TEMP    WIND        PRES    WAVE   SWELL
                          AIR SEA DIR/SP/G            HT/PER HT/PER
                          (F)     (DEG/KT/KT) (MB)    (FT/S) (FT/S)
CEDAR KEY                  81     220/ 14/ 19 1011.2R
28.5N   84.5W              79 84  210/ 17/ 21 1009.5R   5/ 7
27.3N   84.2W                 84                N/A     6/ 7
CLEARWATER BEACH           82 81  220/ 20/ 23 1012.1R
MIDDLE TAMPA BAY           79     160/  9/ 12 1012.8R
VENICE                     76 84   90/  4/  5 1012.7R

$$
FLZ066-069-070-075>078-162-262-165-265-021200-
SOUTHWEST FLORIDA AND KEYS

CITY           SKY/WX    TMP DP  RH WIND       PRES   REMARKS
PUNTA GORDA    CLOUDY    76  75  97 SE7       29.94R
FT MYERS       CLOUDY    79  77  94 S5        29.92R
SOUTHWEST INTL CLOUDY    78  76  93 S5        29.93R
NAPLES         MOCLDY    81  78  91 SE3       29.93R
MARCO ISLAND   SUNNY     79  73  83 CALM      29.93S
MARATHON       PTCLDY    85  77  77 S5        29.94S HX  95
KEY WEST NAS   MOCLDY    84  75  74 S7        29.94S
KEY WEST INTL  PTCLDY    85  76  74 S7        29.94S

STATION/POSITION SKY/WX   TEMP    WIND        PRES    WAVE   SWELL
                          AIR SEA DIR/SP/G            HT/PER HT/PER
                          (F)     (DEG/KT/KT) (MB)    (FT/S) (FT/S)
VENICE                     76 84   90/  4/  5 1012.7R
NAPLES                        86              1014.3F
26.0N   85.6W              83 84  260/  8/ 10 1012.4R   4/ 6   3/ 6
DRY TORTUGAS               84     130/  5/  6 1013.6F
NW FL BAY                  87     180/ 13/ 15 1013.8
SAND KEY                   84     180/  6/  9 1013.8S
SOMBRERO KEY               85     160/ 13/ 15 1014.5S
LONG KEY                   85 88  190/ 10/ 12 1014.8R
MOLASSES REEF              85 86  160/  9/ 10 1014.1R

$$
FLZ067-068-071>074-168-172>174-021200-
SOUTHEAST FLORIDA

CITY           SKY/WX    TMP DP  RH WIND       PRES   REMARKS
W PALM BEACH   CLOUDY    78  75  90 SW3       29.96R
FT LAUDER-EXEC CLOUDY    82  74  76 S5        29.95R
FT LAUDERDALE  CLOUDY    83  74  74 S5        29.95R
POMPANO BEACH  CLOUDY    84  71  65 S9        29.95R
PEMBROKE PINES CLOUDY    82  73  74 SE3       29.97R
OPA LOCKA      CLOUDY    81  74  79 SE6       29.95S
MIAMI          CLOUDY    81  74  79 SE5       29.95S
WEST KENDALL   CLOUDY    81  76  84 E3        29.95S
HOMESTEAD      CLOUDY    81  75  81 SE2       29.95R

STATION/POSITION SKY/WX   TEMP    WIND        PRES    WAVE   SWELL
                          AIR SEA DIR/SP/G            HT/PER HT/PER
                          (F)     (DEG/KT/KT) (MB)    (FT/S) (FT/S)
PORT EVERGLADES            84     160/ 10/ 14 1014.3R
VIRGINIA KEY               85 86  140/ 10/ 13 1013.9F
LAKE WORTH                 83 82  170/ 11/ 13 1013.7R
SETTLEMENT POINT           82     150/  5/  7 1015.5R

$$



USA.gov is the U.S. government's official web portal to all federal, state and local government web resources and services.